Location: United Presbyterian Church of Jetmore
(38.0871°N, 99.8974°W)
Time: 19:54:22
(UTC+00:00)

Daily predictions for brighter satellites

Satellite Brightness Start Highest point End
(mag) Time Altitude Azimuth Time Altitude Azimuth Time Altitude Azimuth
deb Chang Zheng 4 3.9 12:03:02 10° N 12:07:05 40° WNW 12:11:08 10° SW
SKYMED 2 3.5 12:04:19 10° S 12:08:37 73° WSW 12:12:59 10° NNW
Meteor 1-4 Rocket 3.6 12:10:51 10° N 12:14:12 45° ENE 12:17:30 10° SSE
Cosmos 2084 4.4 12:10:06 11° NNW 12:14:13 49° NE 12:18:34 10° SE
ATLAS 2AS CENTAUR R/B 3.1 12:07:53 10° SSW 12:15:47 86° ESE 12:23:45 10° NNE
USA 234 3.2 12:09:51 10° NE 12:16:21 69° NW 12:22:50 10° WSW
H-2A R/B 3.8 12:14:38 10° NNE 12:18:18 40° E 12:21:54 10° S
USA 276 2.7 12:18:15 28° W 12:19:21 40° SW 12:22:19 10° SSE
Delta 2 Rocket 4.0 12:16:38 20° W 12:19:37 51° SSW 12:23:41 10° ESE
Okean O Rocket 4.1 12:16:38 10° NE 12:20:20 25° E 12:24:00 10° SSE
CENTAUR R/B 3.3 12:13:28 10° NNW 12:21:52 88° ENE 12:30:47 10° SSE
ERBS 3.5 12:22:27 22° NW 12:22:48 22° NW 12:25:29 10° NNE
Cosmos 773 Rocket 4.5 12:18:40 13° NW 12:23:04 40° WSW 12:27:55 10° S
H-2A R/B 2.7 12:20:07 10° N 12:24:03 85° W 12:27:55 10° SSW
Meteor 1-26 Rocket 4.3 12:20:39 10° N 12:26:31 88° ENE 12:32:10 10° S
SL-16 R/B 3.6 12:28:22 16° W 12:29:48 17° W 12:33:23 10° SW
NOSS 3-2 (A) 4.3 12:22:45 10° NW 12:30:22 56° WSW 12:38:45 10° SSE
CZ-4C R/B 2.6 12:25:56 10° SSW 12:30:31 58° ESE 12:35:55 10° NE
Cosmos 1933 3.5 12:28:07 10° NNW 12:32:05 50° W 12:36:02 10° SSW
Cosmos 1633 3.2 12:33:13 10° SW 12:36:23 31° WNW 12:39:35 10° NNW
SMAP 4.4 12:31:59 10° NNE 12:36:27 44° E 12:40:53 10° S
SJ-7 4.3 12:32:42 10° N 12:36:44 75° WNW 12:40:48 10° SSW
Cosmos 1500 Rocket 4.4 12:32:51 10° S 12:37:02 52° E 12:41:14 10° NNE
CZ-4B DEB 4.4 12:31:47 10° NNE 12:37:16 80° ESE 12:42:43 10° SSW
ASTRO E2 4.1 12:37:01 10° WSW 12:40:33 31° S 12:44:04 10° ESE
RESURS DK-1 3.7 12:37:01 10° S 12:40:59 45° ESE 12:44:58 10° NE
YAOGAN 6 2.5 12:38:11 10° N 12:41:42 90° WNW 12:45:11 10° SSW
Okean 3 Rocket 4.3 12:39:15 10° SW 12:43:04 29° WNW 12:46:55 10° NNW
Cosmos 2151 4.5 12:40:34 10° WSW 12:43:06 16° WNW 12:45:40 10° NW
Cosmos 1151 Rocket 3.2 12:40:02 10° NNW 12:44:08 47° W 12:48:13 10° SSW
USA 238 DEB 4.2 12:37:12 10° NW 12:44:13 50° WSW 12:51:27 10° S
USA 238 4.2 12:37:18 10° NW 12:44:20 50° WSW 12:51:33 10° S
PSLV R/B 3.8 12:40:38 10° N 12:44:28 58° WNW 12:48:13 10° SSW
Cosmos 1844 Rocket 3.6 12:39:11 10° S 12:44:38 55° ESE 12:50:10 10° NNE
ERS-2 4.1 12:43:57 10° WSW 12:45:03 11° W 12:45:28 11° W
Cosmos 1328 Rocket 3.7 12:42:02 10° NNW 12:46:20 53° W 12:50:38 10° S
Meteor 2-3 Rocket 4.1 12:44:10 10° SW 12:49:29 41° WNW 12:54:54 10° N
Cosmos 990 Rocket 4.0 12:44:35 10° SSW 12:49:48 85° WNW 12:55:05 10° NNE
Cosmos 2181 Rocket 4.2 12:44:37 10° NNW 12:50:37 51° W 12:56:31 10° SSW
Lacrosse 4 Rocket 1.9 12:47:18 10° NNW 12:51:36 64° ENE 12:55:57 10° SE
Cosmos 1689 Rocket 3.6 12:49:43 10° SW 12:51:43 17° W 12:53:43 10° NW
BREEZE-M DEB (TANK) 3.0 12:48:33 10° WSW 12:51:46 72° NNW 13:01:33 10° NE
SL-4 R/B 3.6 12:49:34 10° WNW 12:52:04 16° NNW 12:54:32 10° NNE
NOAA 6 4.0 12:47:58 10° N 12:53:05 76° WNW 12:58:11 10° SSW
OAO 3 Rocket 4.1 12:48:56 10° W 12:53:19 39° SSW 12:57:45 10° SE
Cosmos 1782 2.9 12:50:25 10° NNW 12:54:23 60° W 12:58:20 10° S
COSMO-SKYMED 1 3.9 12:53:38 10° SW 12:56:52 20° W 13:00:07 10° NW
SJ 16-02 2.1 12:54:04 10° SW 12:58:01 32° WNW 13:01:59 10° N
Cosmos 1743 Rocket 3.6 12:54:18 10° S 12:58:42 82° W 13:03:12 10° N
Cosmos 1461 3.1 12:54:52 10° NW 12:59:32 70° WSW 13:03:59 10° SSE
Lacrosse 5 1.9 12:55:00 10° SW 13:00:00 62° NW 13:05:03 10° NE
Cosmos 2154 Rocket 4.2 12:54:41 10° S 13:00:51 81° E 13:07:07 10° N
Cosmos 1680 Rocket 3.7 12:55:35 10° NNW 13:00:56 81° ENE 13:06:15 10° SSE
BREEZE M DEB (TANK) 3.0 12:51:19 10° SW 13:01:13 79° NW 13:04:17 10° NE
FALCON 9 DEB 3.0 13:01:08 10° SW 13:04:19 85° SE 13:07:32 10° NE
Cosmos 1408 Rocket 4.2 13:01:22 10° SW 13:05:26 34° WNW 13:09:30 10° NNW
SL-16 R/B 3.5 23:48:32 10° SE 23:52:32 20° E 23:56:33 10° NE
Abrixas rocket 3.3 23:51:15 10° NNW 23:53:27 21° NNE 23:55:39 10° ENE
Lacrosse 5 rocket 3.2 23:52:09 10° SE 23:53:36 12° ESE 23:55:03 10° E
Cosmos 1862 3.4 23:51:38 10° N 23:55:37 55° E 23:59:32 10° SSE
Cosmos 2292 4.3 23:53:10 10° S 23:56:05 55° E 23:59:18 10° NNE
